Regional Weather Roundup
Issued by NWS

Home | Current Version | Previous Version | Graphics & Text | Print | Product List | Glossary On
Versions: 1 2 3 4 5 6 7 8 9 10 11 12 13 14 15 16 17 18 19 20 21 22 23 24 25 26 27
000
ASUS45 KCYS 230410
RWRWY

WYOMING REGIONAL WEATHER ROUNDUP
NATIONAL WEATHER SERVICE CHEYENNE WY
900 PM MST MON JAN 22 2018

NOTE:  "FAIR" INDICATES FEW OR NO CLOUDS BELOW 12,000 FEET
WITH NO SIGNIFICANT WEATHER AND/OR OBSTRUCTIONS TO VISIBILITY.

WYZ001-230500-
YELLOWSTONE NATIONAL PARK

CITY           SKY/WX    TMP DP  RH WIND       PRES   REMARKS
LK YELLOWSTONE   N/A     11   8  88 CALM      30.14R
W YELLOWSTONE  NOT AVBL

$$
WYZ002>013-054>058-071-098>099-230500-
NORTHERN WYOMING

CITY           SKY/WX    TMP DP  RH WIND       PRES   REMARKS
JACKSON        LGT SNOW  16  13  88 NE6       30.19R FOG     WCI   7
CODY           FAIR      31  12  45 W9        30.10S WCI  23
GREYBULL       CLOUDY    20  15  81 NW3       30.15R
WORLAND        FAIR       9   6  88 SE3       30.13R
SHERIDAN       CLOUDY    29  22  75 CALM      30.09R
BUFFALO        CLOUDY    29  17  61 CALM      30.07R
GILLETTE       CLOUDY    27  20  75 W13       30.06R WCI  16
HULETT         CLOUDY    30  21  69 SW5       30.06R WCI  25
NEWCASTLE      FAIR      19  14  79 N3        30.08R

$$
WYZ014>020-022>026-101>103-230500-
CENTRAL WYOMING

CITY           SKY/WX    TMP DP  RH WIND       PRES   REMARKS
BIG PINEY      MOCLDY    12   8  84 E6        30.17R WCI   3
PINEDALE       FLURRIES  18  12  79 NW3       30.18R
DUBOIS         FAIR      19  10  68 N13       30.08S WCI   7
LANDER         FAIR      10   6  84 W8        30.11R WCI  -2
RIVERTON       CLOUDY    10   4  76 W3        30.11R
CASPER         CLOUDY    24  18  77 S18       30.09R WCI  10
DOUGLAS        FAIR      15  10  80 N5        30.10R WCI   8

$$
WYZ021-027>030-104>119-230500-
SOUTHERN WYOMING

CITY           SKY/WX    TMP DP  RH WIND       PRES   REMARKS
EVANSTON       MOCLDY    21  18  88 SW15      30.22S WCI   8
FORT BRIDGER   CLOUDY    25  21  86 W16G22    30.24R WCI  12
ROCK SPRINGS   CLOUDY    21  15  78 W22G31    30.18R WCI   5
DIXON          LGT SNOW  21  18  87 SW3       30.24S
RAWLINS        CLOUDY    19  14  81 W17G23    30.12R WCI   4
SARATOGA       CLOUDY    23  14  68 SW8       30.15R WCI  14
LARAMIE        FAIR      19  11  70 SW14      30.05R WCI   6
CHEYENNE       CLOUDY    25  13  60 NW8       30.05R WCI  16
TORRINGTON     FAIR      23  14  68 NW12      30.09R WCI  12

$$




USA.gov is the U.S. government's official web portal to all federal, state and local government web resources and services.